Location: �couen
(49.0206°N, 2.3831°E)
Time: 23:56:32
(UTC+00:00)

Cosmos 1758 - Pass Details

Date: 06 June 2022
Orbit: 538 x 557 km, 82.5° (Epoch: 01 July)

Event Time Altitude Azimuth Distance (km) Brightness Sun altitude
Rises 21:21:22 0° 359° (N) 2,726 7.9 -11.1°
Reaches altitude 10° 21:23:49 10° 13° (NNE) 1,831 6.6 -11.3°
Maximum altitude 21:27:13 26° 71° (ENE) 1,111 4.7 -11.6°
Enters shadow 21:29:44 15° 120° (ESE) 1,545 5.1 -11.8°
